TimeEDT,TemperatureF,Dew PointF,Humidity,Sea Level PressureIn,VisibilityMPH,Wind Direction,Wind SpeedMPH,Gust SpeedMPH,PrecipitationIn,Events,Conditions,WindDirDegrees,DateUTC
12:01 AM,80.6,68.0,65,29.78,10.0,ENE,6.9,-,N/A,Thunderstorm,Thunderstorm,70,2012-06-26 04:01:00
12:33 AM,80.6,62.6,54,29.78,10.0,NE,10.4,18.4,N/A,,Overcast,40,2012-06-26 04:33:00
12:52 AM,79.0,62.1,56,29.76,10.0,NE,8.1,-,N/A,,Overcast,50,2012-06-26 04:52:00
1:52 AM,78.1,61.0,56,29.79,10.0,NE,9.2,18.4,N/A,,Overcast,50,2012-06-26 05:52:00
2:52 AM,75.0,57.0,53,29.80,10.0,NE,13.8,21.9,N/A,,Scattered Clouds,50,2012-06-26 06:52:00
3:52 AM,73.9,51.1,45,29.79,10.0,NE,12.7,-,N/A,,Scattered Clouds,40,2012-06-26 07:52:00
4:52 AM,71.1,52.0,51,29.79,10.0,NNE,8.1,-,N/A,,Partly Cloudy,30,2012-06-26 08:52:00
5:52 AM,68.0,53.1,59,29.81,10.0,NNE,9.2,-,N/A,,Partly Cloudy,20,2012-06-26 09:52:00
6:52 AM,69.1,54.0,58,29.83,10.0,NNE,10.4,-,N/A,,Partly Cloudy,30,2012-06-26 10:52:00
7:52 AM,71.6,51.8,50,29.89,10.0,NE,12.7,-,N/A,,Partly Cloudy,40,2012-06-26 11:52:00
8:52 AM,72.0,53.1,51,29.87,10.0,NNE,13.8,18.4,N/A,,Scattered Clouds,30,2012-06-26 12:52:00
9:52 AM,73.9,53.1,48,29.88,10.0,NE,11.5,19.6,N/A,,Clear,40,2012-06-26 13:52:00
10:52 AM,75.9,53.1,45,29.88,10.0,North,11.5,-,N/A,,Clear,10,2012-06-26 14:52:00
11:52 AM,78.1,52.0,40,29.88,10.0,NNE,11.5,21.9,N/A,,Partly Cloudy,30,2012-06-26 15:52:00
12:52 PM,79.0,52.0,39,29.86,10.0,NE,8.1,17.3,N/A,,Clear,50,2012-06-26 16:52:00
1:52 PM,82.0,48.0,30,29.84,10.0,NNE,12.7,18.4,N/A,,Partly Cloudy,20,2012-06-26 17:52:00
2:52 PM,81.0,48.0,31,29.84,10.0,North,15.0,18.4,N/A,,Partly Cloudy,10,2012-06-26 18:52:00
3:52 PM,82.0,46.9,29,29.83,10.0,NNE,9.2,-,N/A,,Partly Cloudy,30,2012-06-26 19:52:00
4:52 PM,82.0,48.0,30,29.82,10.0,North,12.7,-,N/A,,Partly Cloudy,10,2012-06-26 20:52:00
5:52 PM,81.0,46.0,29,29.83,10.0,NE,9.2,-,N/A,,Scattered Clouds,40,2012-06-26 21:52:00
6:52 PM,79.0,46.9,32,29.84,10.0,NE,10.4,-,N/A,,Partly Cloudy,40,2012-06-26 22:52:00
7:52 PM,77.0,46.0,33,29.83,10.0,NE,10.4,18.4,N/A,,Partly Cloudy,50,2012-06-26 23:52:00
8:52 PM,75.0,44.1,33,29.83,10.0,ENE,8.1,26.5,N/A,,Partly Cloudy,60,2012-06-27 00:52:00
9:52 PM,69.1,46.0,44,29.87,10.0,NE,3.5,-,N/A,,Partly Cloudy,40,2012-06-27 01:52:00
10:52 PM,70.0,46.0,42,29.88,10.0,Variable,3.5,-,N/A,,Clear,0,2012-06-27 02:52:00
11:52 PM,66.0,48.0,52,29.88,10.0,North,3.5,-,N/A,,Clear,360,2012-06-27 03:52:00